This is the latest recevied weather packets stored in our database for station/object VA7NEZ. If no packets are shown the sender has not sent any weather packets the latest 10 day(s).
| Time | Temp. | Humidity | Pressure | Rain* | Wind** | Luminosity | Snow |
|---|---|---|---|---|---|---|---|
| 1778326661 | 7.78° C | 65% | 1020.4 hPa | 0 mm | - | - | - |
| 1778326071 | 7.78° C | 60% | 1020.3 hPa | 0 mm | - | - | - |
| 1778325546 | 7.78° C | 59% | 1020.3 hPa | 0 mm | - | - | - |
| 1778324442 | 8.33° C | 60% | 1020.2 hPa | 0 mm | - | - | - |
| 1778323871 | 0° C | 100% | 1020.1 hPa | 0 mm | - | - | - |
| 1778323322 | 8.89° C | 57% | 1020.1 hPa | 0 mm | - | - | - |
| 1778322796 | 9.44° C | 56% | 1020 hPa | 0 mm | - | - | - |
| 1778321632 | 10° C | 52% | 1019.7 hPa | 0 mm | - | - | - |
| 1778321091 | 10.56° C | 52% | 1019.5 hPa | 0 mm | - | - | - |
| 1778320591 | 11.11° C | 53% | 1019.7 hPa | 0 mm | - | - | - |
| 1778319990 | 11.11° C | 50% | 1019.4 hPa | 0 mm | - | - | - |
| 1778319501 | 11.11° C | 49% | 1019.5 hPa | 0 mm | - | - | - |
| 1778318511 | 11.11° C | 49% | 1019.3 hPa | 0 mm | - | - | - |
| 1778318006 | 11.11° C | 49% | 1019.3 hPa | 0 mm | - | - | - |
| 1778317501 | 11.67° C | 47% | 1019.2 hPa | 0 mm | - | - | - |
| 1778316998 | 11.67° C | 47% | 1019.1 hPa | 0 mm | - | - | - |
| 1778316416 | 11.67° C | 47% | 1019 hPa | 0 mm | - | - | - |
| 1778315856 | 11.67° C | 48% | 1018.9 hPa | 0 mm | - | - | - |
| 1778315276 | 11.67° C | 47% | 1018.9 hPa | 0 mm | - | - | - |
| 1778314762 | 12.22° C | 46% | 1018.9 hPa | 0 mm | - | - | - |
| 1778314226 | 11.67° C | 46% | 1018.8 hPa | 0 mm | - | - | - |
| 1778313626 | 11.67° C | 45% | 1018.8 hPa | 0 mm | - | - | - |
| 1778313062 | 11.67° C | 46% | 1018.7 hPa | 0 mm | - | - | - |
| 1778312546 | 12.22° C | 46% | 1018.6 hPa | 0 mm | - | - | - |
| 1778312066 | 12.22° C | 47% | 1018.5 hPa | 0 mm | - | - | - |
* Rain latest hour (hover to see other rain measurements)
** Current wind speed in m/s (hover to see current wind gust speed)